Location: *
(46.1006°N, 1.8394°E)
Time: 12:52:19
(UTC+00:00)

Cosmos 1707 - Pass Details

Date: 20 September 2019
Orbit: 517 x 530 km, 82.5° (Epoch: 18 October)

Event Time Altitude Azimuth Distance (km) Brightness Sun altitude
Rises 19:37:31 0° 343° (NNW) 2,682 6.9 -18.2°
Reaches altitude 10° 19:39:47 10° 335° (NNW) 1,788 6.1 -18.5°
Maximum altitude 19:43:23 37° 268° (W) 845 4.3 -19.1°
Drops below altitude 10° 19:47:00 10° 200° (SSW) 1,774 5.4 -19.7°
Enters shadow 19:48:57 - 193° (SSW) 2,548 6.1 -20.0°
